This is the latest recevied weather packets stored in our database for station/object WE1C. If no packets are shown the sender has not sent any weather packets the latest 10 day(s).
| Time | Temp. | Humidity | Pressure | Rain* | Wind** | Luminosity | Snow |
|---|---|---|---|---|---|---|---|
| 1778026063 | 19.44° C | 55% | 1037.5 hPa | 0 mm | - | 0 W/m² | - |
| 1778025761 | 20° C | 55% | 1037.5 hPa | 0 mm | - | 0 W/m² | - |
| 1778025458 | 20° C | 55% | 1037.6 hPa | 0 mm | - | 0 W/m² | - |
| 1778025156 | 20° C | 54% | 1037.5 hPa | 0 mm | - | 1 W/m² | - |
| 1778024852 | 20° C | 54% | 1037.3 hPa | 0 mm | - | 2 W/m² | - |
| 1778024550 | 20.56° C | 53% | 1037.2 hPa | 0 mm | - | 4 W/m² | - |
| 1778024246 | 20.56° C | 52% | 1037.3 hPa | 0 mm | - | 7 W/m² | - |
| 1778023944 | 20.56° C | 52% | 1037 hPa | 0 mm | - | 11 W/m² | - |
| 1778023641 | 21.11° C | 51% | 1037 hPa | 0 mm | - | 16 W/m² | - |
| 1778023338 | 21.11° C | 51% | 1037.1 hPa | 0 mm | - | 21 W/m² | - |
| 1778023035 | 21.67° C | 50% | 1037.1 hPa | 0 mm | - | 29 W/m² | - |
| 1778022735 | 21.67° C | 50% | 1036.9 hPa | 0 mm | - | 36 W/m² | - |
| 1778022432 | 21.67° C | 50% | 1037.1 hPa | 0 mm | - | 43 W/m² | - |
| 1778022129 | 21.67° C | 49% | 1036.6 hPa | 0 mm | - | 47 W/m² | - |
| 1778021825 | 21.67° C | 49% | 1036.7 hPa | 0 mm | - | 54 W/m² | - |
| 1778021521 | 22.22° C | 49% | 1036.4 hPa | 0 mm | - | 55 W/m² | - |
| 1778021217 | 22.22° C | 48% | 1036.4 hPa | 0 mm | - | 61 W/m² | - |
| 1778020915 | 22.78° C | 48% | 1036.6 hPa | 0 mm | - | 64 W/m² | - |
| 1778020612 | 22.78° C | 47% | 1036.5 hPa | 0 mm | - | 68 W/m² | - |
| 1778020308 | 22.78° C | 47% | 1036.4 hPa | 0 mm | - | 72 W/m² | - |
| 1778020005 | 22.78° C | 46% | 1036.2 hPa | 0 mm | - | 75 W/m² | - |
| 1778019701 | 23.33° C | 46% | 1036.2 hPa | 0 mm | - | 85 W/m² | - |
| 1778019392 | 23.33° C | 46% | 1036.2 hPa | 0 mm | - | 85 W/m² | - |
| 1778019089 | 23.33° C | 46% | 1036.2 hPa | 0 mm | - | 102 W/m² | - |
| 1778018787 | 23.89° C | 45% | 1035.8 hPa | 0 mm | - | 106 W/m² | - |
* Rain latest hour (hover to see other rain measurements)
** Current wind speed in m/s (hover to see current wind gust speed)